This is the latest recevied weather packets stored in our database for station/object TONGUE. If no packets are shown the sender has not sent any weather packets the latest 10 day(s).
| Time | Temp. | Humidity | Pressure | Rain* | Wind** | Luminosity | Snow |
|---|---|---|---|---|---|---|---|
| 1787893204 | 14.44° C | 100% | 0 hPa | - | - | - | - |
| 1787892603 | 14.44° C | 100% | 0 hPa | - | - | - | - |
| 1787892003 | 15° C | 100% | 0 hPa | - | - | - | - |
| 1787891402 | 14.44° C | 100% | 0 hPa | - | - | - | - |
| 1787886012 | 17.22° C | 93% | 0 hPa | - | - | - | - |
| 1787885404 | 17.78° C | 90% | 0 hPa | - | - | - | - |
| 1787884803 | 17.78° C | 87% | 0 hPa | - | - | - | - |
| 1787883610 | 17.78° C | 88% | 0 hPa | - | - | - | - |
| 1787883003 | 17.78° C | 88% | 0 hPa | - | - | - | - |
| 1787882403 | 17.78° C | 89% | 0 hPa | - | - | - | - |
| 1787881203 | 18.33° C | 85% | 0 hPa | - | - | - | - |
| 1787880603 | 17.78° C | 84% | 0 hPa | - | - | - | - |
| 1787880003 | 18.89° C | 81% | 0 hPa | - | - | - | - |
| 1787879403 | 18.89° C | 78% | 0 hPa | - | - | - | - |
| 1787878803 | 18.33° C | 79% | 0 hPa | - | - | - | - |
| 1787878203 | 18.89° C | 78% | 0 hPa | - | - | - | - |
| 1787877603 | 18.33° C | 81% | 0 hPa | - | - | - | - |
| 1787877003 | 18.89° C | 81% | 0 hPa | - | - | - | - |
| 1787876403 | 18.89° C | 81% | 0 hPa | - | - | - | - |
| 1787875803 | 20° C | 77% | 0 hPa | - | - | - | - |
| 1787875203 | 19.44° C | 77% | 0 hPa | - | - | - | - |
| 1787874603 | 19.44° C | 77% | 0 hPa | - | - | - | - |
| 1787874003 | 18.89° C | 81% | 0 hPa | - | - | - | - |
| 1787873403 | 19.44° C | 77% | 0 hPa | - | - | - | - |
| 1787872804 | 19.44° C | 75% | 0 hPa | - | - | - | - |
* Rain since midnight (hover to see other rain measurements)
** Current wind speed in m/s (hover to see current wind gust speed)